Cozumel, Mexico

3:52 AM EST on January 23, 2018 (GMT -0500)
Cozumel

Weather History for MMCZ - October, 2010

Change the Weather History Date:

Thursday, October 28, 2010

  Actual Average Record
Temperature  
Mean Temperature 76 °F -  
Max Temperature 84 °F 83 °F 89 °F (1997)
Min Temperature 69 °F 73 °F 35 °F (1998)
Cooling Degree Days 12    
Growing Degree Days 26 (Base 50)    
Moisture  
Dew Point 73 °F    
Average Humidity 90    
Maximum Humidity 100    
Minimum Humidity 74    
Precipitation  
Precipitation 0.00 in - - ()
Sea Level Pressure  
Sea Level Pressure 29.99 in    
Wind  
Wind Speed 4 mph ()    
Max Wind Speed 14 mph    
Max Gust Speed -    
Visibility 7.4 miles    
Events      
Averages and records for this station are not official NWS values.
T = Trace of Precipitation, MM = Missing Value Source: Averaged Metar Reports

Daily Weather History Graph

Daily Weather History Graph

Search for Another Location

Airport or City:

Trip Planner

Search our weather history database for the weather conditions in past years. The results will help you decide how hot, cold, wet, or windy it might be!

Date:

Astronomy

Oct. 28, 2010 Rise Set
Actual Time 6:47 AM CDT 6:14 PM CDT
Civil Twilight 6:25 AM CDT 6:37 PM CDT
Nautical Twilight 5:59 AM CDT 7:03 PM CDT
Astronomical Twilight 5:33 AM CDT 7:29 PM CDT
Moon 11:04 PM CDT (10/28) 11:46 AM CDT (10/28)
Length of Visible Light 12h 12m
Length of Day
11h 26m
Waning Gibbous, 70% of the Moon is Illuminated
Oct 28
Waning Gibbous
Oct 30
Last Quarter
Nov 5
New
Nov 13
First Quarter
Nov 21
Full

Hourly Weather History & Observations

Time (CDT) Temp. Heat Index Dew Point Humidity Pressure Visibility Wind Dir Wind Speed Gust Speed Precip Events Conditions
12:44 AM 73.4 °F - 73.4 °F 100% 29.98 in 7.0 mi Calm Calm - N/A   Scattered Clouds
1:41 AM 73.4 °F - 73.4 °F 100% 29.99 in 7.0 mi Calm Calm - N/A   Scattered Clouds
2:40 AM 73.4 °F - 71.6 °F 94% 29.98 in 7.0 mi Calm Calm - N/A   Scattered Clouds
3:42 AM 71.6 °F - 71.6 °F 100% 30.00 in 7.0 mi Calm Calm - N/A   Scattered Clouds
4:46 AM 69.8 °F - 69.8 °F 100% 29.98 in 7.0 mi Calm Calm - N/A   Scattered Clouds
5:41 AM 71.6 °F - 71.6 °F 100% 29.99 in 7.0 mi Calm Calm - N/A   Mostly Cloudy
6:44 AM 71.6 °F - 71.6 °F 100% 29.97 in 7.0 mi Calm Calm - N/A   Scattered Clouds
7:43 AM 71.6 °F - 71.6 °F 100% 30.01 in 7.0 mi Calm Calm - N/A   Mostly Cloudy
8:42 AM 78.8 °F - 75.2 °F 89% 30.03 in 8.0 mi ENE 8.1 mph - N/A   Mostly Cloudy
9:51 AM 80.6 °F 85.4 °F 73.4 °F 79% 30.07 in 8.0 mi ENE 13.8 mph - N/A   Scattered Clouds
10:46 AM 82.4 °F 88.2 °F 73.4 °F 74% 30.05 in 8.0 mi ENE 11.5 mph - N/A   Scattered Clouds
11:42 AM 80.6 °F 85.4 °F 73.4 °F 79% 30.04 in 8.0 mi ENE 10.4 mph - N/A   Mostly Cloudy
12:42 PM 84.2 °F 92.3 °F 75.2 °F 74% 29.99 in 8.0 mi ENE 13.8 mph - N/A   Mostly Cloudy
1:42 PM 80.6 °F 85.4 °F 73.4 °F 79% 29.97 in 8.0 mi ENE 13.8 mph - N/A   Mostly Cloudy
2:48 PM 82.4 °F 90.9 °F 77.0 °F 84% 29.95 in 8.0 mi ENE 13.8 mph - N/A   Mostly Cloudy
3:44 PM 82.4 °F 89.5 °F 75.2 °F 79% 29.96 in 8.0 mi NE 13.8 mph - N/A   Mostly Cloudy
4:44 PM 80.6 °F 86.2 °F 75.2 °F 84% 29.93 in 8.0 mi NE 12.7 mph - N/A   Scattered Clouds
5:47 PM 78.8 °F - 73.4 °F 83% 29.94 in 8.0 mi NE 8.1 mph - N/A   Scattered Clouds
6:45 PM 77.0 °F - 73.4 °F 89% 29.92 in 7.0 mi ENE 5.8 mph - N/A   Scattered Clouds
7:43 PM 77.0 °F - 73.4 °F 89% 29.97 in 7.0 mi ENE 6.9 mph - N/A   Scattered Clouds
8:41 PM 77.0 °F - 73.4 °F 89% 29.99 in 7.0 mi ENE 6.9 mph - N/A   Scattered Clouds
9:41 PM 75.2 °F - 71.6 °F 89% 30.03 in 7.0 mi East 5.8 mph - N/A   Partly Cloudy
10:41 PM 71.6 °F - 71.6 °F 100% 30.02 in 7.0 mi Calm Calm - N/A   Partly Cloudy
11:44 PM 73.4 °F - 71.6 °F 94% 30.01 in 7.0 mi Calm Calm - N/A   Partly Cloudy